AirNav   TITAN Aviation Fuels
 
 1163 users online  

CA97 Christy Airstrip
Santa Barbara, California, USA

GOING TO SANTA BARBARA?


FAA INFORMATION EFFECTIVE 19 MAY 2022

Location

FAA Identifier: CA97
Lat/Long: 34-01-11.0140N 119-51-10.4640W
34-01.183567N 119-51.174400W
34.0197261,-119.8529067
(estimated)
Elevation: 250 ft. / 76 m (estimated)
Variation: 14E (1985)
From city: 26 miles SW of SANTA BARBARA, CA
Time zone: UTC -7 (UTC -8 during Standard Time)
Zip code: 93105

Airport Operations

Airport use: Private use. Permission required prior to landing
Activation date: 10/1975
Control tower: no
ARTCC: LOS ANGELES CENTER
FSS: HAWTHORNE FLIGHT SERVICE STATION
Attendance: UNATNDD
Wind indicator: yes
Segmented circle: no

Nearby radio navigation aids

VOR radial/distance  VOR name  Freq  Var
RZSr174/29.7SAN MARCUS VORTAC114.9014E
GVOr143/32.9GAVIOTA VORTAC113.8016E
CMAr238/39.4CAMARILLO VOR/DME115.8015E

Airport Services

Airframe service: NONE
Powerplant service: NONE

Runway Information

Runway 9/27

Dimensions: 2507 x 50 ft. / 764 x 15 m
Surface: turf
RUNWAY 9  RUNWAY 27
Traffic pattern: leftright
Obstructions: hills, 2500 ft. from runwaynone

Airport Ownership and Management from official FAA records

Ownership: Privately-owned
Owner: THE NATURE CONSERVACY
532 E MAIN ST., SUITE 200
VENTURA, CA 93001
Phone (805) 642-0345
OFFICE PHONE
Manager: EAMON O'BYRNE
532 E MAIN ST., SUITE 200
VENTURA, CA 93001
Phone (805) 642-0345

Additional Remarks

PVT LNDG STRIP - TRESPASSERS PROSECUTED.
OWNER DOES NOT DESIRE ARPT TO BE CHARTED.
FOR CD CTC LOS ANGELES ARTCC AT 661-575-2079.

Instrument Procedures

There are no published instrument procedures at CA97.

Some nearby airports with instrument procedures:

KSBA - Santa Barbara Municipal Airport (24 nm N)
KOXR - Oxnard Airport (34 nm E)
KIZA - Santa Ynez Airport (37 nm N)
KNTD - Point Mugu Naval Air Station (Naval Base Ventura County) (37 nm E)
KCMA - Camarillo Airport (39 nm E)
 
Loc | Ops | Rwys | IFR | FBO | Links
Com | Nav | Svcs | Stats | Notes
Area around CA97 (Christy Airstrip)
 
Road maps at: MapQuest Bing Google
 
Aerial photo
No photo
 
Sectional chart

 
Airport distance calculator
Flying to Christy Airstrip? Find the distance to fly.

From to CA97

Sunrise and sunset
Times for 22-May-2022
 Local
(UTC-7)
 Zulu
(UTC)
Morning civil twilight05:2612:26
Sunrise05:5412:54
Sunset19:5802:58
Evening civil twilight20:2603:26

Current date and time
Zulu (UTC)  22-May-2022 16:37:25
Local (UTC-7)  22-May-2022 09:37:25
 
METAR
KSBA 
25nm N 
221553Z 14007KT 6SM HZ SCT007 14/11 A3003 RMK AO2 SLP168 T01440106 $
KOXR 
34nm E 
221551Z VRB03KT 8SM CLR 16/12 A3003 RMK AO2 SLP167 T01560117
KIZA 
36nm N 
221615Z AUTO 27005KT 7SM OVC007 11/09 A3005 RMK AO2
KNTD 
37nm E 
221617Z 21006KT 5SM HZ FEW007 SCT010 15/11 A3004 RMK AO2 T01500106 VISNO N $
KCMA 
41nm E 
221555Z VRB03KT 7SM CLR 16/10 A3003 RMK AO2 SLP176 T01560100
KLPC 
49nm NW 
221613Z AUTO 00000KT 10SM OVC010 12/09 A3006 RMK AO2 CIG 008V012
TAF
KSBA 
25nm N 
221135Z 2212/2312 10004KT 4SM BR OVC004 FM221500 16004KT 6SM BR SCT006 FM221700 24010KT P6SM FEW010 FM230200 12004KT 6SM HZ FEW007 FM231000 09006KT 4SM BR OVC007
NOTAMs
Click for the latest NOTAMs
NOTAMs are issued by the DoD/FAA and will open in a separate window not controlled by AirNav.

 

 
 

Would you like to see your business listed on this page?

 If your business provides an interesting product or service to pilots, flight crews, aircraft, or users of the Christy Airstrip, you should consider listing it here.  To start the listing process, click on the button below
 
Add a business
 

Other Pages about Christy Airstrip

Update a link
 
Copyright © AirNav, LLC. All rights reserved. Privacy Policy  Contact